Previsão horária em Cementnyy

Hoje, 25 Julho, Domingo

Tempo Temperatura Precipitação Vento Pressão Humidade
00:00 +19°C° 0 mm 3 m/s 749 mmHg 62%
01:00 +19°C° 0 mm 3 m/s 750 mmHg 62%
02:00 +18°C° 0 mm 3 m/s 750 mmHg 63%
03:00 +18°C° 0 mm 3 m/s 750 mmHg 62%
04:00 +18°C° 0 mm 3 m/s 751 mmHg 60%
05:00 +19°C° 0 mm 4 m/s 751 mmHg 58%
06:00 +20°C° 0 mm 4 m/s 752 mmHg 56%
07:00 +21°C° 0 mm 4 m/s 752 mmHg 50%
08:00 +23°C° 0 mm 4 m/s 752 mmHg 45%
09:00 +25°C° 0 mm 4 m/s 753 mmHg 39%
10:00 +26°C° 0 mm 4 m/s 753 mmHg 36%
11:00 +27°C° 0 mm 4 m/s 753 mmHg 33%
12:00 +28°C° 0 mm 4 m/s 753 mmHg 31%
13:00 +28°C° 0 mm 4 m/s 753 mmHg 30%
14:00 +28°C° 0 mm 4 m/s 753 mmHg 29%
15:00 +28°C° 0 mm 5 m/s 753 mmHg 28%
16:00 +27°C° 0 mm 5 m/s 754 mmHg 30%
17:00 +27°C° 0 mm 5 m/s 754 mmHg 32%
18:00 +26°C° 0 mm 5 m/s 754 mmHg 33%
19:00 +23°C° 0 mm 5 m/s 755 mmHg 37%
20:00 +22°C° 0 mm 4 m/s 755 mmHg 41%
21:00 +20°C° 0 mm 3 m/s 755 mmHg 44%
22:00 +20°C° 0 mm 3 m/s 755 mmHg 45%
23:00 +19°C° 0 mm 3 m/s 755 mmHg 45%

Amanhã, 26 Julho, Segunda-feira

Tempo Temperatura Precipitação Vento Pressão Humidade
00:00 +18°C° 0 mm 3 m/s 755 mmHg 45%
01:00 +18°C° 0 mm 3 m/s 756 mmHg 44%
02:00 +18°C° 0 mm 2 m/s 756 mmHg 44%
03:00 +17°C° 0 mm 2 m/s 756 mmHg 43%
04:00 +18°C° 0 mm 2 m/s 756 mmHg 41%
05:00 +19°C° 0 mm 2 m/s 756 mmHg 39%
06:00 +21°C° 0 mm 1 m/s 757 mmHg 37%
07:00 +22°C° 0 mm 1 m/s 757 mmHg 34%
08:00 +23°C° 0 mm 2 m/s 757 mmHg 32%
09:00 +24°C° 0 mm 2 m/s 757 mmHg 29%
10:00 +25°C° 0 mm 2 m/s 757 mmHg 28%
11:00 +26°C° 0 mm 3 m/s 757 mmHg 26%
12:00 +27°C° 0 mm 3 m/s 757 mmHg 25%
13:00 +28°C° 0 mm 4 m/s 757 mmHg 25%
14:00 +28°C° 0 mm 4 m/s 756 mmHg 24%
15:00 +28°C° 0 mm 5 m/s 756 mmHg 24%
16:00 +28°C° 0 mm 5 m/s 756 mmHg 25%
17:00 +27°C° 0 mm 5 m/s 756 mmHg 25%
18:00 +27°C° 0 mm 5 m/s 756 mmHg 26%
19:00 +25°C° 0 mm 4 m/s 756 mmHg 29%
20:00 +22°C° 0 mm 4 m/s 756 mmHg 33%
21:00 +20°C° 0 mm 3 m/s 756 mmHg 36%
22:00 +20°C° 0 mm 3 m/s 756 mmHg 39%
23:00 +19°C° 0 mm 3 m/s 756 mmHg 42%

Depois de amanhã, 27 Julho, Terça-feira

Tempo Temperatura Precipitação Vento Pressão Humidade
00:00 +18°C° 0 mm 3 m/s 756 mmHg 45%
01:00 +18°C° 0 mm 3 m/s 756 mmHg 47%
02:00 +17°C° 0 mm 3 m/s 756 mmHg 48%
03:00 +17°C° 0 mm 3 m/s 756 mmHg 50%
04:00 +18°C° 0 mm 3 m/s 756 mmHg 49%
05:00 +19°C° 0 mm 3 m/s 756 mmHg 47%
06:00 +19°C° 0 mm 2 m/s 756 mmHg 46%
07:00 +21°C° 0 mm 3 m/s 756 mmHg 40%
08:00 +24°C° 0 mm 3 m/s 756 mmHg 35%
09:00 +26°C° 0 mm 3 m/s 756 mmHg 29%
10:00 +27°C° 0 mm 3 m/s 755 mmHg 28%
11:00 +28°C° 0 mm 3 m/s 755 mmHg 26%
12:00 +28°C° 0 mm 3 m/s 755 mmHg 25%
13:00 +29°C° 0 mm 4 m/s 754 mmHg 24%
14:00 +29°C° 0 mm 4 m/s 754 mmHg 24%
15:00 +30°C° 0 mm 4 m/s 753 mmHg 23%
16:00 +29°C° 0 mm 4 m/s 753 mmHg 24%
17:00 +29°C° 0 mm 5 m/s 753 mmHg 26%
18:00 +29°C° 0 mm 5 m/s 753 mmHg 27%
19:00 +27°C° 0 mm 4 m/s 753 mmHg 32%
20:00 +25°C° 0 mm 4 m/s 753 mmHg 36%
21:00 +22°C° 0 mm 3 m/s 753 mmHg 41%
22:00 +22°C° 0 mm 3 m/s 753 mmHg 44%
23:00 +21°C° 0 mm 3 m/s 753 mmHg 47%

28 Julho, Quarta-feira

Tempo Temperatura Precipitação Vento Pressão Humidade
00:00 +20°C° 0 mm 3 m/s 753 mmHg 50%
01:00 +20°C° 0 mm 3 m/s 753 mmHg 52%
02:00 +19°C° 0 mm 3 m/s 753 mmHg 55%
03:00 +19°C° 0 mm 3 m/s 753 mmHg 58%
04:00 +19°C° 0 mm 3 m/s 753 mmHg 58%
05:00 +20°C° 0 mm 4 m/s 753 mmHg 58%
06:00 +20°C° 0 mm 4 m/s 753 mmHg 58%
07:00 +22°C° 0 mm 4 m/s 753 mmHg 51%
08:00 +25°C° 0 mm 5 m/s 753 mmHg 44%
09:00 +26°C° 0 mm 5 m/s 753 mmHg 37%
10:00 +27°C° 0 mm 5 m/s 753 mmHg 34%
11:00 +28°C° 0 mm 5 m/s 753 mmHg 31%
12:00 +29°C° 0 mm 5 m/s 752 mmHg 28%
13:00 +30°C° 0 mm 5 m/s 752 mmHg 26%
14:00 +30°C° 0 mm 5 m/s 752 mmHg 25%
15:00 +32°C° 0 mm 5 m/s 751 mmHg 24%
16:00 +30°C° 0 mm 5 m/s 751 mmHg 25%
17:00 +30°C° 0 mm 5 m/s 751 mmHg 26%
18:00 +29°C° 0 mm 5 m/s 751 mmHg 27%
19:00 +28°C° 0 mm 4 m/s 751 mmHg 32%
20:00 +26°C° 0 mm 3 m/s 751 mmHg 36%
21:00 +24°C° 0 mm 2 m/s 751 mmHg 41%
22:00 +24°C° 0 mm 2 m/s 751 mmHg 43%
23:00 +23°C° 0 mm 1 m/s 751 mmHg 44%

29 Julho, Quinta-feira

Tempo Temperatura Precipitação Vento Pressão Humidade
00:00 +22°C° 0 mm 1 m/s 750 mmHg 46%
01:00 +22°C° 0 mm 1 m/s 750 mmHg 46%
02:00 +22°C° 0 mm 1 m/s 750 mmHg 47%
03:00 +21°C° 0 mm 2 m/s 750 mmHg 47%
04:00 +23°C° 0 mm 2 m/s 750 mmHg 45%
05:00 +23°C° 0 mm 2 m/s 750 mmHg 43%
06:00 +24°C° 0 mm 2 m/s 750 mmHg 41%
07:00 +26°C° 0 mm 3 m/s 750 mmHg 37%
08:00 +28°C° 0 mm 4 m/s 750 mmHg 34%
09:00 +30°C° 0 mm 5 m/s 749 mmHg 30%
10:00 +30°C° 0 mm 5 m/s 749 mmHg 29%
11:00 +32°C° 0 mm 5 m/s 749 mmHg 27%
12:00 +32°C° 0 mm 5 m/s 748 mmHg 26%
13:00 +29°C° 0.1 mm 6 m/s 748 mmHg 36%
14:00 +26°C° 0.1 mm 6 m/s 749 mmHg 46%
15:00 +23°C° 0.1 mm 6 m/s 749 mmHg 56%
16:00 +22°C° 0.4 mm 5 m/s 748 mmHg 57%
17:00 +22°C° 0.4 mm 4 m/s 748 mmHg 58%
18:00 +22°C° 0.4 mm 3 m/s 747 mmHg 60%
19:00 +23°C° 0 mm 2 m/s 747 mmHg 60%
20:00 +21°C° 0 mm 2 m/s 747 mmHg 61%
21:00 +21°C° 0 mm 2 m/s 747 mmHg 62%
22:00 +20°C° 0.3 mm 2 m/s 746 mmHg 64%
23:00 +20°C° 0.3 mm 3 m/s 746 mmHg 66%

30 Julho, Sexta-feira

Tempo Temperatura Precipitação Vento Pressão Humidade
00:00 +20°C° 0.3 mm 3 m/s 746 mmHg 68%
01:00 +19°C° 0.1 mm 3 m/s 746 mmHg 70%
02:00 +19°C° 0.1 mm 3 m/s 746 mmHg 72%
03:00 +19°C° 0.1 mm 2 m/s 745 mmHg 74%
04:00 +20°C° 0.1 mm 2 m/s 746 mmHg 74%
05:00 +20°C° 0.1 mm 2 m/s 746 mmHg 74%
06:00 +21°C° 0.1 mm 2 m/s 746 mmHg 75%
07:00 +24°C° 0 mm 3 m/s 746 mmHg 68%
08:00 +26°C° 0 mm 3 m/s 746 mmHg 61%
09:00 +28°C° 0 mm 3 m/s 746 mmHg 54%
10:00 +29°C° 0 mm 4 m/s 746 mmHg 49%
11:00 +30°C° 0 mm 4 m/s 746 mmHg 44%
12:00 +32°C° 0 mm 5 m/s 746 mmHg 40%
13:00 +30°C° 0 mm 5 m/s 746 mmHg 42%
14:00 +30°C° 0 mm 5 m/s 746 mmHg 45%
15:00 +29°C° 0 mm 5 m/s 746 mmHg 47%
16:00 +29°C° 0 mm 5 m/s 746 mmHg 48%
17:00 +29°C° 0 mm 5 m/s 747 mmHg 50%
18:00 +28°C° 0 mm 5 m/s 747 mmHg 51%
19:00 +27°C° 0 mm 4 m/s 747 mmHg 56%
20:00 +26°C° 0 mm 3 m/s 747 mmHg 61%
21:00 +25°C° 0 mm 3 m/s 747 mmHg 66%
22:00 +24°C° 0 mm 3 m/s 747 mmHg 70%
23:00 +24°C° 0 mm 3 m/s 747 mmHg 73%
Mostrar mais

Necessitamos do seu Consentimento

A Meteoprog e os seus Fornecedores de Serviços podem armazenar e aceder a dados pessoais como cookies, identificadores do dispositivo ou outras tecnologias semelhantes existentes no seu dispositivo e processar estes dados para personalizar conteúdos e anúncios, assim como funcionalidades nas redes sociais e análise de tráfego.

  • Armazenar e/ou aceder a informações no seu dispositivo

    Os cookies, identificadores do dispositivo ou outras informações podem ser armazenados ou acedidos no seu dispositivo, para os fins acima indicados.

  • Anúncios e conteúdos personalizados, medição de anúncios e conteúdos, dados sobre o público-alvo e desenvolvimento de produtos

    Os anúncios e os conteúdos podem ser personalizados com base num perfil. Podem ser adicionados dados adicionais para uma maior personalização dos anúncios e dos conteúdos. A eficácia dos anúncios e dos conteúdos pode ser medida. Podem ser obtidas informações sobre o público que visualizou os anúncios e os conteúdos. Estes dados podem ser usados para desenvolver ou melhorar sistemas, softwares ou a experiência do utilizador.

Ao clicar em "Eu concordo”, permitirá o uso de cookies, identificadores do dispositivo e web beacons mencionados ou outras tecnologias semelhantes. As configurações do navegador do seu dispositivo podem ser alteradas.

Para certos fins, podem ser invocados interesses legítimos ao invés de consentimento. Pode ler mais informação sobre este assunto na nossa Política de Privacidade e Cookies.